VORF Weather Reports


time (UTC)temp
C
wind
direction
speed
KPH
gust
KPH
rain 1hr
cm
rain 24hr
cm
rain mn
cm
humidity
%
barometer
mb
20260906113057 21 80 0.0 4.8 0.00 0.00 0.00 89 1017.6
20260906111549 21 41 0.0 8.0 0.00 0.00 0.00 88 1017.4
20260906110054 21 0 0.0 6.4 0.00 0.00 0.00 88 1017.4
20260906104551 21 37 1.6 4.8 0.00 0.00 0.00 87 1017.1
20260906103047 21 58 1.6 6.4 0.00 0.00 0.00 87 1016.9
20260906101554 21 0 0.0 6.4 0.00 0.00 0.00 86 1016.9
20260906100052 22 53 0.0 3.2 0.00 0.00 0.00 86 1016.8
20260906094550 22 51 1.6 4.8 0.00 0.00 0.00 86 1016.7
20260906093056 22 45 0.0 6.4 0.00 0.00 0.00 85 1016.7
20260906091554 22 77 1.6 6.4 0.00 0.00 0.00 84 1016.7
20260906090103 22 43 1.6 6.4 0.00 0.00 0.00 84 1016.7
20260906084550 22 57 1.6 6.4 0.00 0.00 0.00 85 1016.6
20260906083055 22 51 1.6 4.8 0.00 0.00 0.00 86 1016.5
20260906081558 22 49 1.6 6.4 0.00 0.00 0.00 86 1016.7
20260906080053 22 76 1.6 4.8 0.00 0.00 0.00 86 1016.7
20260906074608 22 67 1.6 6.4 0.00 0.00 0.00 86 1016.7
20260906073047 22 53 1.6 8.0 0.00 0.00 0.00 85 1016.7
20260906071558 22 43 3.2 11.3 0.00 0.00 0.00 85 1016.9
20260906070051 22 86 0.0 4.8 0.00 0.00 0.00 86 1016.8
20260906064555 22 26 0.0 4.8 0.00 0.00 0.00 87 1016.9
20260906063055 22 44 1.6 4.8 0.00 0.00 0.00 88 1016.7
20260906061611 22 0 0.0 8.0 0.00 0.00 0.00 88 1016.7
20260906060051 22 15 0.0 4.8 0.00 0.00 0.00 88 1016.8
20260906054558 22 0 0.0 6.4 0.00 0.00 0.00 88 1016.8
20260906053050 22 63 0.0 9.7 0.00 0.00 0.00 88 1016.8
20260906051603 22 44 6.4 17.7 0.00 0.00 0.00 88 1016.5
20260906050056 22 34 4.8 12.9 0.00 0.00 0.00 88 1016.5
20260906044552 22 49 3.2 16.1 0.00 0.00 0.00 88 1016.4
20260906043048 22 55 4.8 16.1 0.00 0.00 0.00 87 1016.1
20260906041553 22 78 6.4 16.1 0.00 0.00 0.00 87 1016.0
20260906040058 22 98 3.2 12.9 0.00 0.00 0.00 87 1015.9
20260906034551 22 28 3.2 16.1 0.00 0.00 0.00 87 1015.8
20260906033052 22 31 4.8 16.1 0.00 0.00 0.00 87 1015.8
20260906031601 22 57 3.2 16.1 0.00 0.00 0.00 87 1015.9
20260906030056 22 42 4.8 19.3 0.00 0.00 0.00 86 1015.8
20260906024550 22 40 9.7 22.5 0.00 0.00 0.00 86 1015.8
20260906023053 22 46 3.2 19.3 0.00 0.00 0.00 85 1015.5
20260906021553 22 16 6.4 22.5 0.00 0.00 0.00 85 1015.7
20260906020057 22 98 3.2 20.9 0.00 0.00 0.00 85 1015.9
20260906014555 22 342 3.2 16.1 0.00 0.00 0.00 85 1016.0
20260906013053 22 296 6.4 19.3 0.00 0.00 0.00 86 1015.8
20260906011553 22 78 6.4 19.3 0.00 0.00 0.00 86 1015.7
20260906010050 22 9 6.4 20.9 0.00 0.00 0.00 86 1015.5
20260906004557 22 348 6.4 16.1 0.00 0.00 0.00 86 1015.2
20260906003057 22 76 3.2 22.5 0.00 0.00 0.00 86 1015.1
20260906001554 22 56 1.6 14.5 0.00 0.00 0.00 85 1015.2
20260905234558 22 63 4.8 19.3 0.00 0.00 0.00 86 1015.2
20260905233105 22 292 8.0 19.3 0.00 0.00 0.00 85 1015.0
20260905231554 23 17 6.4 20.9 0.00 0.00 0.00 85 1015.0
20260905230054 23 35 9.7 19.3 0.00 0.00 0.00 84 1014.8
20260905224605 24 53 6.4 20.9 0.00 0.00 0.00 82 1014.7
20260905223054 25 314 4.8 19.3 0.00 0.00 0.00 81 1014.8
20260905221602 25 317 4.8 12.9 0.00 0.00 0.00 79 1014.7
20260905220108 26 153 9.7 17.7 0.00 0.00 0.00 78 1014.5
20260905214556 26 319 3.2 20.9 0.00 0.00 0.00 77 1014.4
20260905213053 26 310 6.4 14.5 0.00 0.00 0.00 77 1014.2
20260905211629 26 336 4.8 17.7 0.00 0.00 0.00 76 1014.2
20260905210056 26 65 4.8 19.3 0.00 0.00 0.00 75 1014.3
20260905204556 26 33 6.4 14.5 0.00 0.00 0.00 75 1014.3
20260905203114 26 325 3.2 11.3 0.00 0.00 0.00 77 1014.3
20260905201559 26 332 8.0 17.7 0.00 0.00 0.00 77 1014.3
20260905200100 26 348 6.4 20.9 0.00 0.00 0.00 76 1014.5
20260905194548 26 76 4.8 14.5 0.00 0.00 0.00 76 1014.3
20260905193055 26 300 4.8 14.5 0.00 0.00 0.00 77 1014.5
20260905191551 26 330 6.4 14.5 0.00 0.00 0.00 78 1014.7
20260905190054 26 230 4.8 22.5 0.00 0.00 0.00 79 1014.6
20260905184555 26 325 3.2 14.5 0.00 0.00 0.00 77 1014.6
20260905183050 26 13 3.2 12.9 0.00 0.00 0.00 78 1014.7
20260905181609 26 318 8.0 17.7 0.00 0.00 0.00 77 1014.7
20260905180108 27 311 3.2 12.9 0.00 0.00 0.00 75 1014.5
20260905174557 27 9 8.0 17.7 0.00 0.00 0.00 76 1014.6
20260905173057 26 343 4.8 19.3 0.00 0.00 0.00 77 1014.6
20260905171554 27 346 9.7 19.3 0.00 0.00 0.00 76 1014.6
20260905170053 26 331 8.0 19.3 0.00 0.00 0.00 77 1014.6
20260905164557 27 84 3.2 17.7 0.00 0.00 0.00 76 1014.7
20260905163054 27 32 6.4 16.1 0.00 0.00 0.00 76 1014.7
20260905161550 27 315 4.8 12.9 0.00 0.00 0.00 76 1014.6
20260905160133 27 13 3.2 11.3 0.00 0.00 0.00 76 1014.6
20260905154553 27 61 3.2 16.1 0.00 0.00 0.00 77 1014.4
20260905153052 27 82 3.2 17.7 0.00 0.00 0.00 76 1014.3
20260905151608 27 72 4.8 14.5 0.00 0.00 0.00 76 1014.1
20260905150058 27 299 1.6 9.7 0.00 0.00 0.00 77 1014.1
20260905144553 26 296 6.4 17.7 0.00 0.00 0.00 80 1014.1
20260905143052 26 36 4.8 19.3 0.00 0.00 0.00 81 1014.0
20260905141550 26 49 4.8 20.9 0.00 0.00 0.00 81 1013.9
20260905140058 26 53 3.2 11.3 0.00 0.00 0.00 82 1013.8
20260905134556 25 37 3.2 16.1 0.00 0.00 0.00 86 1013.8
20260905133102 25 310 6.4 17.7 0.00 0.00 0.00 87 1014.0
20260905131605 23 288 0.0 11.3 0.00 0.00 0.00 92 1013.9
20260905130056 23 304 3.2 6.4 0.00 0.00 0.00 94 1013.7
20260905124554 22 308 3.2 9.7 0.00 0.00 0.00 94 1013.5
20260905123103 22 327 1.6 4.8 0.00 0.00 0.00 94 1013.3
20260905121555 22 311 1.6 8.0 0.00 0.00 0.00 93 1013.2
20260905120113 22 20 1.6 6.4 0.00 0.00 0.00 93 1013.2
20260905114558 23 349 1.6 6.4 0.00 0.00 0.00 93 1012.7